Location: Allos
(44.2333°N, 6.6333°E)
Time: 11:52:29
(UTC+00:00)

Envisat - Pass Details

Date: 01 December 2020
Orbit: 764 x 766 km, 98.1° (Epoch: 26 January)

Event Time Altitude Azimuth Distance (km) Brightness Sun altitude
Rises 16:34:10 0° 167° (SSE) 3,218 6.4 -6.9°
Reaches altitude 10° 16:36:28 10° 168° (SSE) 2,296 5.6 -7.3°
Maximum altitude 16:41:32 83° 256° (WSW) 777 3.1 -8.2°
Drops below altitude 10° 16:46:39 10° 345° (NNW) 2,314 5.4 -9.0°
Sets 16:48:58 0° 347° (NNW) 3,245 6.2 -9.4°
